N3SW-13 Weather Reports


Display with metric or nautical units.
time (UTC)temp
F
wind
direction
speed
MPH
gust
MPH
rain 1hr
in
rain 24hr
in
rain mn
in
humidity
%
barometer
mb
20260504044605 51 286 0.0 1.0 0.00 0.00 0.00 50 1016.5
20260504043059 51 286 0.0 0.0 0.00 0.00 0.00 53 1016.2
20260504041555 52 286 0.0 0.0 0.00 0.00 0.00 51 1016.4
20260504040105 52 286 0.0 2.0 0.00 0.00 0.00 49 1016.3
20260504034612 51 286 1.0 4.0 0.00 0.00 0.00 48 1016.4
20260504033051 51 286 0.0 2.0 0.00 0.00 0.00 49 1016.4
20260504031550 51 286 0.0 3.0 0.00 0.00 0.00 47 1016.4
20260504030113 50 286 0.0 1.0 0.00 0.00 0.00 48 1016.4
20260504024555 50 286 0.0 2.0 0.00 0.00 0.00 49 1016.4
20260504023049 51 286 0.0 3.0 0.00 0.00 0.00 48 1016.5
20260504021551 52 286 0.0 2.0 0.00 0.00 0.00 46 1016.4
20260504020149 52 286 0.0 2.0 0.00 0.00 0.00 45 1016.2
20260504014552 53 286 1.0 6.0 0.00 0.00 0.00 44 1016.3
20260504013052 53 286 0.0 2.0 0.00 0.00 0.00 44 1015.8
20260504011546 55 286 0.0 2.0 0.00 0.00 0.00 43 1015.8
20260504010045 56 286 0.0 2.0 0.00 0.00 0.00 40 1015.6
20260504004544 57 286 0.0 0.0 0.00 0.00 0.00 36 1015.5
20260504003044 57 286 0.0 0.0 0.00 0.00 0.00 35 1015.3
20260504001558 58 286 0.0 0.0 0.00 0.00 0.00 35 1015.3
20260504000042 59 286 0.0 1.0 0.00 0.00 0.00 32 1015.3
20260503234542 60 286 0.0 1.0 0.00 0.00 0.00 31 1015.2
20260503233042 60 286 0.0 1.0 0.00 0.00 0.00 31 1015.2
20260503231543 61 286 0.0 7.0 0.00 0.00 0.00 31 1015.1
20260503230041 62 286 0.0 5.0 0.00 0.00 0.00 31 1015.1
20260503224541 62 286 0.0 4.0 0.00 0.00 0.00 30 1015.0
20260503223041 63 286 0.0 5.0 0.00 0.00 0.00 29 1015.3
20260503221544 64 263 0.0 3.0 0.00 0.00 0.00 28 1015.3
20260503220039 65 283 1.0 5.0 0.00 0.00 0.00 27 1015.4
20260503214539 65 287 1.0 4.0 0.00 0.00 0.00 27 1015.5
20260503213043 65 274 1.0 6.0 0.00 0.00 0.00 27 1015.8
20260503211536 64 261 0.0 4.0 0.00 0.00 0.00 28 1015.7
20260503210034 63 277 0.0 3.0 0.00 0.00 0.00 29 1016.0
20260503204533 64 274 1.0 8.0 0.00 0.00 0.00 29 1016.1
20260503203030 64 235 1.0 3.0 0.00 0.00 0.00 27 1016.2
20260503201527 63 272 0.0 6.0 0.00 0.00 0.00 29 1016.3
20260503200024 62 299 3.0 8.0 0.00 0.00 0.00 29 1016.5
20260503194522 61 355 1.0 5.0 0.00 0.00 0.00 33 1016.9
20260503193023 62 235 0.0 5.0 0.00 0.00 0.00 33 1017.2
20260503191519 61 334 0.0 4.0 0.00 0.00 0.00 31 1017.2
20260503190037 60 300 1.0 6.0 0.00 0.00 0.00 33 1017.3
20260503184517 61 301 1.0 4.0 0.00 0.00 0.00 33 1017.8
20260503183016 60 273 0.0 7.0 0.00 0.00 0.00 35 1018.0
20260503181510 58 275 0.0 4.0 0.00 0.00 0.00 38 1018.2
20260503180012 57 34 0.0 3.0 0.00 0.00 0.00 35 1018.3
20260503174507 58 284 0.0 8.0 0.00 0.00 0.00 38 1018.5
20260503173004 56 22 0.0 4.0 0.00 0.00 0.00 36 1018.5
20260503171501 55 355 0.0 5.0 0.00 0.00 0.00 37 1018.9
20260503100109 39 309 0.0 1.0 0.00 0.00 0.00 68 1017.6
20260503081548 41 309 0.0 1.0 0.00 0.00 0.00 67 1016.4